Time,TemperatureF,DewpointF,PressureIn,WindDirection,WindDirectionDegrees,WindSpeedMPH,WindSpeedGustMPH,Humidity,HourlyPrecipIn,Conditions,Clouds,dailyrainin,SoftwareType,DateUTC
2013-01-22 00:00:00,11.7,5.8,28.95,North,0,5.8,5.8,77,0.00,CLR,SKC,0.00,WeatherDisplay:10.37,2013-01-22 05:00:00,
2013-01-22 00:01:00,11.7,5.8,28.96,North,0,4.6,4.6,77,0.00,CLR,SKC,0.00,WeatherDisplay:10.37,2013-01-22 05:01:00,
2013-01-22 00:04:00,11.7,5.8,28.95,North,0,4.6,4.6,77,0.00,CLR,SKC,0.00,WeatherDisplay:10.37,2013-01-22 05:04:00,
2013-01-22 00:09:00,11.5,5.1,28.95,North,0,16.1,16.1,75,0.00,CLR,SKC,0.00,WeatherDisplay:10.37,2013-01-22 05:09:00,
2013-01-22 00:14:00,11.5,5.1,28.95,North,0,9.2,9.2,75,0.00,CLR,SKC,0.00,WeatherDisplay:10.37,2013-01-22 05:14:00,
2013-01-22 00:19:00,11.5,5.1,28.95,NW,315,15.0,15.0,75,0.00,CLR,SKC,0.00,WeatherDisplay:10.37,2013-01-22 05:19:00,
2013-01-22 00:24:00,11.7,5.6,28.96,NW,315,12.7,12.7,76,0.00,CLR,SKC,0.00,WeatherDisplay:10.37,2013-01-22 05:24:00,
2013-01-22 00:30:00,11.3,7.7,28.96,West,270,16.1,16.1,85,0.00,CLR,SKC,0.00,WeatherDisplay:10.37,2013-01-22 05:30:00,
2013-01-22 00:35:00,10.9,7.6,28.96,North,0,17.3,17.3,86,0.00,CLR,SKC,0.00,WeatherDisplay:10.37,2013-01-22 05:35:00,
2013-01-22 00:40:00,10.9,6.0,28.96,North,0,11.5,11.5,80,0.00,CLR,SKC,0.00,WeatherDisplay:10.37,2013-01-22 05:40:00,
2013-01-22 00:45:00,10.9,5.7,28.96,North,0,12.7,12.7,79,0.00,CLR,SKC,0.00,WeatherDisplay:10.37,2013-01-22 05:45:00,
2013-01-22 00:50:00,10.6,6.4,28.96,North,0,19.6,19.6,83,0.00,CLR,SKC,0.00,WeatherDisplay:10.37,2013-01-22 05:50:00,
2013-01-22 00:55:00,10.4,7.3,28.96,North,0,19.6,19.6,87,0.00,CLR,SKC,0.00,WeatherDisplay:10.37,2013-01-22 05:55:00,
2013-01-22 01:00:00,10.0,7.7,28.96,North,0,12.7,12.7,90,0.00,CLR,SKC,0.00,WeatherDisplay:10.37,2013-01-22 06:00:00,
2013-01-22 01:05:00,10.0,7.7,28.96,North,0,5.8,5.8,90,0.00,CLR,SKC,0.00,WeatherDisplay:10.37,2013-01-22 06:05:00,
2013-01-22 01:10:00,10.2,7.4,28.96,North,0,8.1,8.1,88,0.00,CLR,SKC,0.00,WeatherDisplay:10.37,2013-01-22 06:10:00,
2013-01-22 01:15:00,10.2,7.4,28.97,NNE,14,9.2,9.2,88,0.00,CLR,SKC,0.00,WeatherDisplay:10.37,2013-01-22 06:15:00,
2013-01-22 01:20:00,10.0,7.4,28.97,West,270,16.1,16.1,89,0.00,CLR,SKC,0.00,WeatherDisplay:10.37,2013-01-22 06:20:00,
2013-01-22 01:25:00,9.9,6.5,28.97,South,180,18.4,18.4,86,0.00,CLR,SKC,0.00,WeatherDisplay:10.37,2013-01-22 06:25:00,
2013-01-22 01:30:00,9.9,6.0,28.97,NNE,12,10.4,10.4,84,0.00,CLR,SKC,0.00,WeatherDisplay:10.37,2013-01-22 06:30:00,
2013-01-22 01:35:00,9.9,5.2,28.97,NNE,12,15.0,15.0,81,0.00,CLR,SKC,0.00,WeatherDisplay:10.37,2013-01-22 06:35:00,
2013-01-22 01:40:00,9.9,4.4,28.97,North,0,15.0,15.0,78,0.00,CLR,SKC,0.00,WeatherDisplay:10.37,2013-01-22 06:40:00,
2013-01-22 01:45:00,9.7,3.1,28.98,NNE,14,20.7,20.7,74,0.00,CLR,SKC,0.00,WeatherDisplay:10.37,2013-01-22 06:45:00,
2013-01-22 01:50:00,9.5,3.2,28.98,NNE,12,13.8,13.8,75,0.00,CLR,SKC,0.00,WeatherDisplay:10.37,2013-01-22 06:50:00,
2013-01-22 01:55:00,9.3,3.0,28.98,NW,315,18.4,18.4,75,0.00,CLR,SKC,0.00,WeatherDisplay:10.37,2013-01-22 06:55:00,
2013-01-22 02:00:00,9.3,3.0,28.99,North,1,15.0,15.0,75,0.00,CLR,SKC,0.00,WeatherDisplay:10.37,2013-01-22 07:00:00,
2013-01-22 02:05:00,9.3,3.0,28.99,North,0,12.7,12.7,75,0.00,CLR,SKC,0.00,WeatherDisplay:10.37,2013-01-22 07:05:00,
2013-01-22 02:10:00,9.0,3.2,28.99,South,180,8.1,8.1,77,0.00,CLR,SKC,0.00,WeatherDisplay:10.37,2013-01-22 07:10:00,
2013-01-22 02:15:00,9.0,3.5,29.00,West,270,10.4,10.4,78,0.00,CLR,SKC,0.00,WeatherDisplay:10.37,2013-01-22 07:15:00,
2013-01-22 02:20:00,9.0,3.5,29.00,NW,315,12.7,12.7,78,0.00,CLR,SKC,0.00,WeatherDisplay:10.37,2013-01-22 07:20:00,
2013-01-22 02:25:00,9.0,3.5,29.00,NW,315,16.1,16.1,78,0.00,CLR,SKC,0.00,WeatherDisplay:10.37,2013-01-22 07:25:00,
2013-01-22 02:30:00,9.0,2.9,29.00,NW,315,20.7,20.7,76,0.00,CLR,SKC,0.00,WeatherDisplay:10.37,2013-01-22 07:30:00,
2013-01-22 02:35:00,8.8,2.2,29.00,North,1,20.7,20.7,74,0.00,CLR,SKC,0.00,WeatherDisplay:10.37,2013-01-22 07:35:00,
2013-01-22 02:40:00,8.6,2.3,29.00,North,0,15.0,15.0,75,0.00,CLR,SKC,0.00,WeatherDisplay:10.37,2013-01-22 07:40:00,
2013-01-22 02:45:00,8.4,2.1,29.00,NW,315,12.7,12.7,75,0.00,CLR,SKC,0.00,WeatherDisplay:10.37,2013-01-22 07:45:00,
2013-01-22 02:50:00,8.2,1.9,29.01,North,1,15.0,15.0,75,0.00,CLR,SKC,0.00,WeatherDisplay:10.37,2013-01-22 07:50:00,
2013-01-22 02:55:00,8.2,1.9,29.00,North,0,15.0,15.0,75,0.00,CLR,SKC,0.00,WeatherDisplay:10.37,2013-01-22 07:55:00,
2013-01-22 03:00:00,8.2,2.2,29.01,North,0,12.7,12.7,76,0.00,CLR,SKC,0.00,WeatherDisplay:10.37,2013-01-22 08:00:00,
2013-01-22 03:05:00,8.2,2.2,29.01,North,0,11.5,11.5,76,0.00,CLR,SKC,0.00,WeatherDisplay:10.37,2013-01-22 08:05:00,
2013-01-22 03:10:00,8.1,2.3,29.01,North,0,9.2,9.2,77,0.00,CLR,SKC,0.00,WeatherDisplay:10.37,2013-01-22 08:10:00,
2013-01-22 03:15:00,7.9,2.2,29.01,North,0,10.4,10.4,77,0.00,CLR,SKC,0.00,WeatherDisplay:10.37,2013-01-22 08:15:00,
2013-01-22 03:20:00,7.7,2.3,29.01,North,0,10.4,10.4,78,0.00,CLR,SKC,0.00,WeatherDisplay:10.37,2013-01-22 08:20:00,
2013-01-22 03:25:00,7.7,2.3,29.01,NNE,12,9.2,9.2,78,0.00,CLR,SKC,0.00,WeatherDisplay:10.37,2013-01-22 08:25:00,
2013-01-22 03:30:00,7.5,2.1,29.01,West,270,13.0,13.0,78,0.00,CLR,SKC,0.00,WeatherDisplay:10.37,2013-01-22 08:30:00,
2013-01-22 03:35:00,7.5,2.1,29.02,North,1,13.8,13.8,78,0.00,CLR,SKC,0.00,WeatherDisplay:10.37,2013-01-22 08:35:00,
2013-01-22 03:40:00,7.5,2.1,29.01,West,270,13.8,13.8,78,0.00,CLR,SKC,0.00,WeatherDisplay:10.37,2013-01-22 08:40:00,
2013-01-22 03:45:00,7.5,1.8,29.02,North,1,12.7,12.7,77,0.00,CLR,SKC,0.00,WeatherDisplay:10.37,2013-01-22 08:45:00,
2013-01-22 03:50:00,7.3,1.6,29.02,South,180,12.7,12.7,77,0.00,CLR,SKC,0.00,WeatherDisplay:10.37,2013-01-22 08:50:00,
2013-01-22 03:55:00,7.3,1.6,29.01,South,180,12.7,12.7,77,0.00,CLR,SKC,0.00,WeatherDisplay:10.37,2013-01-22 08:55:00,
2013-01-22 04:00:00,7.2,1.5,29.02,South,180,13.8,13.8,77,0.00,CLR,SKC,0.00,WeatherDisplay:10.37,2013-01-22 09:00:00,
2013-01-22 04:05:00,7.2,1.7,29.02,North,0,8.1,8.1,78,0.00,CLR,SKC,0.00,WeatherDisplay:10.37,2013-01-22 09:05:00,
2013-01-22 04:10:00,7.2,1.7,29.02,North,0,15.0,15.0,78,0.00,CLR,SKC,0.00,WeatherDisplay:10.37,2013-01-22 09:10:00,
2013-01-22 04:15:00,7.0,1.6,29.01,South,180,8.1,8.1,78,0.00,CLR,SKC,0.00,WeatherDisplay:10.37,2013-01-22 09:15:00,
2013-01-22 04:20:00,7.0,1.8,29.02,NW,315,9.2,9.2,79,0.00,CLR,SKC,0.00,WeatherDisplay:10.37,2013-01-22 09:20:00,
2013-01-22 04:25:00,7.0,1.6,29.02,North,1,17.3,17.3,78,0.00,CLR,SKC,0.00,WeatherDisplay:10.37,2013-01-22 09:25:00,
2013-01-22 04:30:00,6.8,1.4,29.02,North,1,8.1,8.1,78,0.00,CLR,SKC,0.00,WeatherDisplay:10.37,2013-01-22 09:30:00,
2013-01-22 04:35:00,6.8,1.1,29.02,North,0,16.1,16.1,77,0.00,CLR,SKC,0.00,WeatherDisplay:10.37,2013-01-22 09:35:00,
2013-01-22 04:40:00,6.8,1.1,29.02,South,180,10.4,10.4,77,0.00,CLR,SKC,0.00,WeatherDisplay:10.37,2013-01-22 09:40:00,
2013-01-22 04:45:00,6.8,0.8,29.02,West,270,12.7,12.7,76,0.00,CLR,SKC,0.00,WeatherDisplay:10.37,2013-01-22 09:45:00,
2013-01-22 04:50:00,6.8,0.8,29.02,North,0,9.2,9.2,76,0.00,CLR,SKC,0.00,WeatherDisplay:10.37,2013-01-22 09:50:00,
2013-01-22 04:55:00,6.6,0.7,29.02,NW,315,10.4,10.4,76,0.00,CLR,SKC,0.00,WeatherDisplay:10.37,2013-01-22 09:55:00,
2013-01-22 05:01:00,6.6,0.7,29.02,North,1,8.1,8.1,76,0.00,CLR,SKC,0.00,WeatherDisplay:10.37,2013-01-22 10:01:00,
2013-01-22 05:06:00,6.6,0.7,29.03,North,0,8.1,8.1,76,0.00,CLR,SKC,0.00,WeatherDisplay:10.37,2013-01-22 10:06:00,
2013-01-22 05:11:00,6.6,0.7,29.03,West,270,11.5,11.5,76,0.00,CLR,SKC,0.00,WeatherDisplay:10.37,2013-01-22 10:11:00,
2013-01-22 05:16:00,6.6,0.7,29.03,North,11,10.4,10.4,76,0.00,CLR,SKC,0.00,WeatherDisplay:10.37,2013-01-22 10:16:00,
2013-01-22 05:21:00,6.4,0.5,29.03,NNE,14,10.7,10.7,76,0.00,CLR,SKC,0.00,WeatherDisplay:10.37,2013-01-22 10:21:00,
2013-01-22 05:26:00,6.4,0.5,29.03,North,0,12.7,12.7,76,0.00,CLR,SKC,0.00,WeatherDisplay:10.37,2013-01-22 10:26:00,
2013-01-22 05:31:00,6.4,0.8,29.03,WNW,292,9.2,9.2,77,0.00,CLR,SKC,0.00,WeatherDisplay:10.37,2013-01-22 10:31:00,
2013-01-22 05:36:00,6.3,0.3,29.04,North,0,17.3,17.3,76,0.00,CLR,SKC,0.00,WeatherDisplay:10.37,2013-01-22 10:36:00,
2013-01-22 05:41:00,6.4,0.5,29.04,North,0,17.3,17.3,76,0.00,CLR,SKC,0.00,WeatherDisplay:10.37,2013-01-22 10:41:00,
2013-01-22 05:46:00,6.3,0.3,29.05,South,180,17.3,17.3,76,0.00,CLR,SKC,0.00,WeatherDisplay:10.37,2013-01-22 10:46:00,
2013-01-22 05:51:00,6.3,0.6,29.05,North,0,8.1,8.1,77,0.00,CLR,SKC,0.00,WeatherDisplay:10.37,2013-01-22 10:51:00,
2013-01-22 05:56:00,6.3,0.9,29.05,NW,315,8.1,8.1,78,0.00,CLR,SKC,0.00,WeatherDisplay:10.37,2013-01-22 10:56:00,
2013-01-22 06:01:00,6.3,0.9,29.05,NW,315,16.1,16.1,78,0.00,CLR,SKC,0.00,WeatherDisplay:10.37,2013-01-22 11:01:00,
2013-01-22 06:06:00,6.3,0.9,29.06,NW,315,15.0,15.0,78,0.00,CLR,SKC,0.00,WeatherDisplay:10.37,2013-01-22 11:06:00,
2013-01-22 06:11:00,6.3,0.9,29.06,North,0,15.0,15.0,78,0.00,CLR,SKC,0.00,WeatherDisplay:10.37,2013-01-22 11:11:00,
2013-01-22 06:17:00,6.3,0.9,29.06,North,8,12.7,12.7,78,0.00,CLR,SKC,0.00,WeatherDisplay:10.37,2013-01-22 11:17:00,
2013-01-22 06:22:00,6.1,1.0,29.06,North,0,9.2,9.2,79,0.00,CLR,SKC,0.00,WeatherDisplay:10.37,2013-01-22 11:22:00,
2013-01-22 06:27:00,6.1,1.0,29.06,West,270,10.4,10.4,79,0.00,CLR,SKC,0.00,WeatherDisplay:10.37,2013-01-22 11:27:00,
2013-01-22 06:32:00,6.1,1.0,29.06,West,270,9.2,9.2,79,0.00,CLR,SKC,0.00,WeatherDisplay:10.37,2013-01-22 11:32:00,
2013-01-22 06:37:00,6.1,1.0,29.07,NW,315,12.7,12.7,79,0.00,CLR,SKC,0.00,WeatherDisplay:10.37,2013-01-22 11:37:00,
2013-01-22 06:42:00,6.1,0.7,29.07,NW,315,5.8,5.8,78,0.00,CLR,SKC,0.00,WeatherDisplay:10.37,2013-01-22 11:42:00,
2013-01-22 06:47:00,6.1,0.7,29.07,North,1,8.1,8.1,78,0.00,CLR,SKC,0.00,WeatherDisplay:10.37,2013-01-22 11:47:00,
2013-01-22 06:52:00,6.1,0.7,29.08,North,0,11.5,11.5,78,0.00,CLR,SKC,0.00,WeatherDisplay:10.37,2013-01-22 11:52:00,
2013-01-22 06:57:00,6.1,0.4,29.07,SE,135,12.7,12.7,77,0.00,CLR,SKC,0.00,WeatherDisplay:10.37,2013-01-22 11:57:00,
2013-01-22 07:02:00,6.1,0.4,29.08,North,0,15.0,15.0,77,0.00,CLR,SKC,0.00,WeatherDisplay:10.37,2013-01-22 12:02:00,
2013-01-22 07:07:00,6.1,0.4,29.08,North,0,15.0,15.0,77,0.00,CLR,SKC,0.00,WeatherDisplay:10.37,2013-01-22 12:07:00,
2013-01-22 07:12:00,5.9,0.0,29.08,East,90,9.2,9.2,76,0.00,CLR,SKC,0.00,WeatherDisplay:10.37,2013-01-22 12:12:00,
2013-01-22 07:17:00,5.7,-0.2,29.08,North,0,10.4,10.4,76,0.00,CLR,SKC,0.00,WeatherDisplay:10.37,2013-01-22 12:17:00,
2013-01-22 07:22:00,5.7,-0.2,29.08,South,180,9.2,9.2,76,0.00,CLR,SKC,0.00,WeatherDisplay:10.37,2013-01-22 12:22:00,
2013-01-22 07:27:00,5.7,0.1,29.08,North,0,6.9,6.9,77,0.00,CLR,SKC,0.00,WeatherDisplay:10.37,2013-01-22 12:27:00,
2013-01-22 07:32:00,5.7,-0.2,29.08,South,180,12.7,12.7,76,0.00,CLR,SKC,0.00,WeatherDisplay:10.37,2013-01-22 12:32:00,
2013-01-22 07:37:00,5.7,-0.2,29.08,North,7,15.0,15.0,76,0.00,CLR,SKC,0.00,WeatherDisplay:10.37,2013-01-22 12:37:00,
2013-01-22 07:42:00,5.7,-0.2,29.08,SE,135,12.7,12.7,76,0.00,CLR,SKC,0.00,WeatherDisplay:10.37,2013-01-22 12:42:00,
2013-01-22 07:47:00,5.7,-0.2,29.08,West,270,10.4,10.4,76,0.00,CLR,SKC,0.00,WeatherDisplay:10.37,2013-01-22 12:47:00,
2013-01-22 07:52:00,5.9,0.0,29.09,West,270,12.7,12.7,76,0.00,CLR,SKC,0.00,WeatherDisplay:10.37,2013-01-22 12:52:00,
2013-01-22 07:58:00,5.9,-0.3,29.09,South,180,11.5,11.5,75,0.00,CLR,SKC,0.00,WeatherDisplay:10.37,2013-01-22 12:58:00,
2013-01-22 08:04:00,5.9,0.0,29.09,North,1,8.1,8.1,76,0.00,CLR,SKC,0.00,WeatherDisplay:10.37,2013-01-22 13:04:00,
2013-01-22 08:09:00,6.1,0.1,29.09,South,180,15.0,15.0,76,0.00,CLR,SKC,0.00,WeatherDisplay:10.37,2013-01-22 13:09:00,
2013-01-22 08:14:00,6.1,0.1,29.09,North,0,9.2,9.2,76,0.00,CLR,SKC,0.00,WeatherDisplay:10.37,2013-01-22 13:14:00,
2013-01-22 08:19:00,6.3,0.3,29.09,NNE,12,8.1,8.1,76,0.00,CLR,SKC,0.00,WeatherDisplay:10.37,2013-01-22 13:19:00,
2013-01-22 08:24:00,6.4,0.2,29.10,North,0,8.1,8.1,75,0.00,CLR,SKC,0.00,WeatherDisplay:10.37,2013-01-22 13:24:00,
2013-01-22 08:29:00,6.3,0.0,29.10,NNE,12,12.7,12.7,75,0.00,CLR,SKC,0.00,WeatherDisplay:10.37,2013-01-22 13:29:00,
2013-01-22 08:34:00,6.3,0.0,29.10,North,2,11.5,11.5,75,0.00,CLR,SKC,0.00,WeatherDisplay:10.37,2013-01-22 13:34:00,
2013-01-22 08:39:00,6.6,0.4,29.10,North,0,6.9,6.9,75,0.00,CLR,SKC,0.00,WeatherDisplay:10.37,2013-01-22 13:39:00,
2013-01-22 08:44:00,6.6,0.1,29.10,North,4,18.4,18.4,74,0.00,CLR,SKC,0.00,WeatherDisplay:10.37,2013-01-22 13:44:00,
2013-01-22 08:49:00,6.6,0.4,29.11,North,0,12.7,12.7,75,0.00,CLR,SKC,0.00,WeatherDisplay:10.37,2013-01-22 13:49:00,
2013-01-22 08:54:00,6.8,0.3,29.11,NW,315,11.5,11.5,74,0.00,CLR,SKC,0.00,WeatherDisplay:10.37,2013-01-22 13:54:00,
2013-01-22 08:59:00,7.0,0.4,29.10,SE,135,8.1,8.1,74,0.00,CLR,SKC,0.00,WeatherDisplay:10.37,2013-01-22 13:59:00,
2013-01-22 09:04:00,7.0,0.4,29.11,North,0,6.9,6.9,74,0.00,CLR,SKC,0.00,WeatherDisplay:10.37,2013-01-22 14:04:00,
2013-01-22 09:09:00,6.8,0.3,29.11,North,0,11.5,11.5,74,0.00,CLR,SKC,0.00,WeatherDisplay:10.37,2013-01-22 14:09:00,
2013-01-22 09:14:00,7.0,0.4,29.11,North,0,9.2,9.2,74,0.00,CLR,SKC,0.00,WeatherDisplay:10.37,2013-01-22 14:14:00,
2013-01-22 09:19:00,7.0,0.4,29.11,SE,135,10.4,10.4,74,0.00,CLR,SKC,0.00,WeatherDisplay:10.37,2013-01-22 14:19:00,
2013-01-22 09:24:00,7.2,0.6,29.12,NNE,13,6.9,6.9,74,0.00,CLR,SKC,0.00,WeatherDisplay:10.37,2013-01-22 14:24:00,
2013-01-22 09:29:00,7.2,0.3,29.12,North,0,12.7,12.7,73,0.00,CLR,SKC,0.00,WeatherDisplay:10.37,2013-01-22 14:29:00,
2013-01-22 09:34:00,7.5,1.0,29.12,South,180,5.8,5.8,74,0.00,CLR,SKC,0.00,WeatherDisplay:10.37,2013-01-22 14:34:00,
2013-01-22 09:39:00,7.9,1.0,29.12,South,180,11.5,11.5,73,0.00,CLR,SKC,0.00,WeatherDisplay:10.37,2013-01-22 14:39:00,
2013-01-22 09:44:00,8.1,1.2,29.12,North,0,13.7,13.7,73,0.00,CLR,SKC,0.00,WeatherDisplay:10.37,2013-01-22 14:44:00,
2013-01-22 09:49:00,8.4,1.5,29.12,NW,315,8.1,8.1,73,0.00,CLR,SKC,0.00,WeatherDisplay:10.37,2013-01-22 14:49:00,
2013-01-22 09:54:00,8.4,0.9,29.12,North,0,17.3,17.3,71,0.00,CLR,SKC,0.00,WeatherDisplay:10.37,2013-01-22 14:54:00,
2013-01-22 09:59:00,8.6,1.1,29.12,South,180,17.3,17.3,71,0.00,CLR,SKC,0.00,WeatherDisplay:10.37,2013-01-22 14:59:00,
2013-01-22 10:04:00,8.8,1.3,29.12,South,180,15.0,15.0,71,0.00,CLR,SKC,0.00,WeatherDisplay:10.37,2013-01-22 15:04:00,
2013-01-22 10:09:00,10.2,2.7,29.12,North,8,8.1,8.1,71,0.00,CLR,SKC,0.00,WeatherDisplay:10.37,2013-01-22 15:09:00,
2013-01-22 10:14:00,9.9,1.7,29.12,North,6,11.5,11.5,69,0.00,CLR,SKC,0.00,WeatherDisplay:10.37,2013-01-22 15:14:00,
2013-01-22 10:19:00,9.5,1.1,29.12,South,180,10.4,10.4,68,0.00,CLR,SKC,0.00,WeatherDisplay:10.37,2013-01-22 15:19:00,
2013-01-22 10:24:00,9.3,0.9,29.12,North,0,15.0,15.0,68,0.00,CLR,SKC,0.00,WeatherDisplay:10.37,2013-01-22 15:24:00,
2013-01-22 10:29:00,9.1,0.4,29.12,North,0,12.7,12.7,67,0.00,CLR,SKC,0.00,WeatherDisplay:10.37,2013-01-22 15:29:00,
2013-01-22 10:34:00,9.5,0.1,29.12,North,0,18.4,18.4,65,0.00,CLR,SKC,0.00,WeatherDisplay:10.37,2013-01-22 15:34:00,
2013-01-22 10:39:00,9.7,0.3,29.12,North,0,12.7,12.7,65,0.00,CLR,SKC,0.00,WeatherDisplay:10.37,2013-01-22 15:39:00,
2013-01-22 10:44:00,10.0,0.3,29.12,NW,315,19.6,19.6,64,0.00,CLR,SKC,0.00,WeatherDisplay:10.37,2013-01-22 15:44:00,
2013-01-22 10:49:00,11.5,1.6,29.12,East,90,11.5,11.5,64,0.00,CLR,SKC,0.00,WeatherDisplay:10.37,2013-01-22 15:49:00,
2013-01-22 10:54:00,10.8,1.0,29.13,North,0,17.3,17.3,64,0.00,CLR,SKC,0.00,WeatherDisplay:10.37,2013-01-22 15:54:00,
2013-01-22 10:59:00,10.9,0.5,29.12,NW,315,13.8,13.8,62,0.00,CLR,SKC,0.00,WeatherDisplay:10.37,2013-01-22 15:59:00,
2013-01-22 11:04:00,11.1,1.0,29.12,NW,315,10.4,10.4,63,0.00,CLR,SKC,0.00,WeatherDisplay:10.37,2013-01-22 16:04:00,
2013-01-22 11:09:00,11.1,0.3,29.13,South,180,10.4,10.4,61,0.00,CLR,SKC,0.00,WeatherDisplay:10.37,2013-01-22 16:09:00,
2013-01-22 11:14:00,10.4,-0.4,29.12,NNE,14,18.4,18.4,61,0.00,CLR,SKC,0.00,WeatherDisplay:10.37,2013-01-22 16:14:00,
2013-01-22 11:19:00,10.0,-0.7,29.12,NNE,15,19.6,19.6,61,0.00,CLR,SKC,0.00,WeatherDisplay:10.37,2013-01-22 16:19:00,
2013-01-22 11:24:00,10.2,-0.6,29.12,NNE,14,18.4,18.4,61,0.00,CLR,SKC,0.00,WeatherDisplay:10.37,2013-01-22 16:24:00,
2013-01-22 11:29:00,10.0,-0.4,29.12,NW,315,15.0,15.0,62,0.00,CLR,SKC,0.00,WeatherDisplay:10.37,2013-01-22 16:29:00,
2013-01-22 11:35:00,9.9,0.1,29.12,North,1,18.4,18.4,64,0.00,CLR,SKC,0.00,WeatherDisplay:10.37,2013-01-22 16:35:00,
2013-01-22 11:40:00,9.9,1.1,29.12,North,0,15.0,15.0,67,0.00,CLR,SKC,0.00,WeatherDisplay:10.37,2013-01-22 16:40:00,
2013-01-22 11:45:00,9.9,0.4,29.12,NNE,16,11.5,11.5,65,0.00,CLR,SKC,0.00,WeatherDisplay:10.37,2013-01-22 16:45:00,
2013-01-22 11:50:00,10.4,-0.1,29.12,NNE,14,15.0,15.0,62,0.00,CLR,SKC,0.00,WeatherDisplay:10.37,2013-01-22 16:50:00,
2013-01-22 11:55:00,11.7,0.8,29.11,North,9,23.5,23.5,61,0.00,CLR,SKC,0.00,WeatherDisplay:10.37,2013-01-22 16:55:00,
2013-01-22 12:00:00,12.0,1.1,29.11,North,0,18.4,18.4,61,0.00,CLR,SKC,0.00,WeatherDisplay:10.37,2013-01-22 17:00:00,
2013-01-22 12:05:00,12.2,1.7,29.11,North,0,12.7,12.7,62,0.00,CLR,SKC,0.00,WeatherDisplay:10.37,2013-01-22 17:05:00,
2013-01-22 12:10:00,13.8,2.5,29.11,West,270,11.5,11.5,60,0.00,CLR,SKC,0.00,WeatherDisplay:10.37,2013-01-22 17:10:00,
2013-01-22 12:15:00,13.5,2.8,29.11,NW,315,8.1,8.1,62,0.00,CLR,SKC,0.00,WeatherDisplay:10.37,2013-01-22 17:15:00,
2013-01-22 12:20:00,12.9,2.3,29.11,North,1,8.1,8.1,62,0.00,CLR,SKC,0.00,WeatherDisplay:10.37,2013-01-22 17:20:00,
2013-01-22 12:25:00,12.0,1.8,29.10,North,4,8.1,8.1,63,0.00,CLR,SKC,0.00,WeatherDisplay:10.37,2013-01-22 17:25:00,
2013-01-22 12:30:00,11.5,1.3,29.11,West,270,20.7,20.7,63,0.00,CLR,SKC,0.00,WeatherDisplay:10.37,2013-01-22 17:30:00,
2013-01-22 12:35:00,11.7,1.8,29.10,North,1,11.5,11.5,64,0.00,CLR,SKC,0.00,WeatherDisplay:10.37,2013-01-22 17:35:00,
2013-01-22 12:40:00,11.1,0.6,29.10,North,0,17.3,17.3,62,0.00,CLR,SKC,0.00,WeatherDisplay:10.37,2013-01-22 17:40:00,
2013-01-22 12:45:00,11.8,0.6,29.10,NNE,13,17.3,17.3,60,0.00,CLR,SKC,0.00,WeatherDisplay:10.37,2013-01-22 17:45:00,
2013-01-22 12:50:00,11.5,1.3,29.10,North,8,20.7,20.7,63,0.00,CLR,SKC,0.00,WeatherDisplay:10.37,2013-01-22 17:50:00,
2013-01-22 12:55:00,11.3,1.1,29.10,North,0,12.7,12.7,63,0.00,CLR,SKC,0.00,WeatherDisplay:10.37,2013-01-22 17:55:00,
2013-01-22 13:00:00,10.9,1.1,29.10,North,0,15.0,15.0,64,0.00,CLR,SKC,0.00,WeatherDisplay:10.37,2013-01-22 18:00:00,
2013-01-22 13:05:00,10.8,1.3,29.10,NNE,12,13.7,13.7,65,0.00,CLR,SKC,0.00,WeatherDisplay:10.37,2013-01-22 18:05:00,
2013-01-22 13:10:00,10.8,0.6,29.10,NNE,12,17.3,17.3,63,0.00,CLR,SKC,0.00,WeatherDisplay:10.37,2013-01-22 18:10:00,
2013-01-22 13:16:00,11.3,1.1,29.10,NNE,14,13.8,13.8,63,0.00,CLR,SKC,0.00,WeatherDisplay:10.37,2013-01-22 18:16:00,
2013-01-22 13:21:00,11.8,1.7,29.09,West,270,11.5,11.5,63,0.00,CLR,SKC,0.00,WeatherDisplay:10.37,2013-01-22 18:21:00,
2013-01-22 13:27:00,11.1,0.3,29.09,North,1,21.9,21.9,61,0.00,CLR,SKC,0.00,WeatherDisplay:10.37,2013-01-22 18:27:00,
2013-01-22 13:32:00,10.9,-0.2,29.09,NW,315,24.2,24.2,60,0.00,CLR,SKC,0.00,WeatherDisplay:10.37,2013-01-22 18:32:00,
2013-01-22 13:38:00,10.6,0.5,29.09,West,270,10.4,10.4,63,0.00,CLR,SKC,0.00,WeatherDisplay:10.37,2013-01-22 18:38:00,
2013-01-22 13:43:00,10.9,0.1,29.09,NW,315,17.3,17.3,61,0.00,CLR,SKC,0.00,WeatherDisplay:10.37,2013-01-22 18:43:00,
2013-01-22 13:48:00,11.5,1.0,29.09,North,1,10.4,10.4,62,0.00,CLR,SKC,0.00,WeatherDisplay:10.37,2013-01-22 18:48:00,
2013-01-22 13:53:00,11.3,1.1,29.09,North,0,18.4,18.4,63,0.00,CLR,SKC,0.00,WeatherDisplay:10.37,2013-01-22 18:53:00,
2013-01-22 13:58:00,12.6,1.3,29.09,NW,315,17.3,17.3,60,0.00,CLR,SKC,0.00,WeatherDisplay:10.37,2013-01-22 18:58:00,
2013-01-22 14:03:00,11.8,2.0,29.10,North,1,15.0,15.0,64,0.00,CLR,SKC,0.00,WeatherDisplay:10.37,2013-01-22 19:03:00,
2013-01-22 14:08:00,12.2,2.7,29.10,North,0,14.5,14.5,65,0.00,CLR,SKC,0.00,WeatherDisplay:10.37,2013-01-22 19:08:00,
2013-01-22 14:13:00,12.0,1.8,29.10,North,0,15.0,15.0,63,0.00,CLR,SKC,0.00,WeatherDisplay:10.37,2013-01-22 19:13:00,
2013-01-22 14:18:00,11.8,1.7,29.10,South,180,9.2,9.2,63,0.00,CLR,SKC,0.00,WeatherDisplay:10.37,2013-01-22 19:18:00,
2013-01-22 14:23:00,11.1,2.3,29.10,WNW,292,8.1,8.1,67,0.00,CLR,SKC,0.00,WeatherDisplay:10.37,2013-01-22 19:23:00,
2013-01-22 14:28:00,10.4,3.5,29.10,North,1,12.7,12.7,73,0.00,CLR,SKC,0.00,WeatherDisplay:10.37,2013-01-22 19:28:00,
2013-01-22 14:33:00,9.7,3.9,29.10,West,270,12.7,12.7,77,0.00,CLR,SKC,0.00,WeatherDisplay:10.37,2013-01-22 19:33:00,
2013-01-22 14:38:00,9.5,3.7,29.10,NNE,14,17.3,17.3,77,0.00,CLR,SKC,0.00,WeatherDisplay:10.37,2013-01-22 19:38:00,
2013-01-22 14:43:00,10.0,4.5,29.10,NNE,16,9.2,9.2,78,0.00,CLR,SKC,0.00,WeatherDisplay:10.37,2013-01-22 19:43:00,
2013-01-22 14:48:00,10.8,3.8,29.09,NW,315,12.7,12.7,73,0.00,CLR,SKC,0.00,WeatherDisplay:10.37,2013-01-22 19:48:00,
2013-01-22 14:53:00,10.9,3.4,29.10,NW,315,10.4,10.4,71,0.00,CLR,SKC,0.00,WeatherDisplay:10.37,2013-01-22 19:53:00,
2013-01-22 14:58:00,10.9,1.8,29.10,North,3,18.4,18.4,66,0.00,CLR,SKC,0.00,WeatherDisplay:10.37,2013-01-22 19:58:00,
2013-01-22 15:03:00,10.8,1.6,29.10,North,0,15.0,15.0,66,0.00,CLR,SKC,0.00,WeatherDisplay:10.37,2013-01-22 20:03:00,
2013-01-22 15:08:00,10.8,1.6,29.10,South,180,10.4,10.4,66,0.00,CLR,SKC,0.00,WeatherDisplay:10.37,2013-01-22 20:08:00,
2013-01-22 15:13:00,10.8,1.6,29.10,South,180,10.4,10.4,66,0.00,CLR,SKC,0.00,WeatherDisplay:10.37,2013-01-22 20:13:00,
2013-01-22 15:18:00,11.7,1.5,29.10,NW,315,8.1,8.1,63,0.00,CLR,SKC,0.00,WeatherDisplay:10.37,2013-01-22 20:18:00,
2013-01-22 15:23:00,11.5,1.6,29.10,North,1,13.8,13.8,64,0.00,CLR,SKC,0.00,WeatherDisplay:10.37,2013-01-22 20:23:00,
2013-01-22 15:28:00,10.8,1.6,29.10,North,0,12.7,12.7,66,0.00,CLR,SKC,0.00,WeatherDisplay:10.37,2013-01-22 20:28:00,
2013-01-22 15:33:00,11.1,2.3,29.10,WNW,292,9.2,9.2,67,0.00,CLR,SKC,0.00,WeatherDisplay:10.37,2013-01-22 20:33:00,
2013-01-22 15:38:00,11.3,1.8,29.10,West,270,11.5,11.5,65,0.00,CLR,SKC,0.00,WeatherDisplay:10.37,2013-01-22 20:38:00,
2013-01-22 15:43:00,11.3,2.1,29.10,NW,315,15.0,15.0,66,0.00,CLR,SKC,0.00,WeatherDisplay:10.37,2013-01-22 20:43:00,
2013-01-22 15:48:00,11.7,2.8,29.10,NNE,14,12.7,12.7,67,0.00,CLR,SKC,0.00,WeatherDisplay:10.37,2013-01-22 20:48:00,
2013-01-22 15:53:00,11.3,1.5,29.10,NW,315,17.3,17.3,64,0.00,CLR,SKC,0.00,WeatherDisplay:10.37,2013-01-22 20:53:00,
2013-01-22 15:58:00,11.1,0.6,29.10,NNE,14,25.3,25.3,62,0.00,CLR,SKC,0.00,WeatherDisplay:10.37,2013-01-22 20:58:00,
2013-01-22 16:03:00,11.1,-0.1,29.10,North,0,17.3,17.3,60,0.00,CLR,SKC,0.00,WeatherDisplay:10.37,2013-01-22 21:03:00,
2013-01-22 16:08:00,10.9,0.5,29.10,North,0,17.3,17.3,62,0.00,CLR,SKC,0.00,WeatherDisplay:10.37,2013-01-22 21:08:00,
2013-01-22 16:13:00,10.8,1.0,29.10,North,0,19.6,19.6,64,0.00,CLR,SKC,0.00,WeatherDisplay:10.37,2013-01-22 21:13:00,
2013-01-22 16:18:00,10.2,1.1,29.10,North,0,12.7,12.7,66,0.00,CLR,SKC,0.00,WeatherDisplay:10.37,2013-01-22 21:18:00,
2013-01-22 16:23:00,10.4,1.6,29.10,NNE,16,10.4,10.4,67,0.00,CLR,SKC,0.00,WeatherDisplay:10.37,2013-01-22 21:23:00,
2013-01-22 16:29:00,10.8,1.6,29.10,NNE,12,12.7,12.7,66,0.00,CLR,SKC,0.00,WeatherDisplay:10.37,2013-01-22 21:29:00,
2013-01-22 16:31:00,10.8,1.6,29.11,South,180,11.5,11.5,66,0.00,CLR,SKC,0.00,WeatherDisplay:10.37,2013-01-22 21:31:00,
2013-01-22 16:37:00,10.8,1.6,29.12,South,180,15.0,15.0,66,0.00,CLR,SKC,0.00,WeatherDisplay:10.37,2013-01-22 21:37:00,
2013-01-22 16:42:00,10.6,1.8,29.12,NNE,13,12.7,12.7,67,0.00,CLR,SKC,0.00,WeatherDisplay:10.37,2013-01-22 21:42:00,
2013-01-22 16:47:00,10.2,1.7,29.12,North,0,15.0,15.0,68,0.00,CLR,SKC,0.00,WeatherDisplay:10.37,2013-01-22 21:47:00,
2013-01-22 16:52:00,9.9,1.7,29.12,NW,315,8.1,8.1,69,0.00,CLR,SKC,0.00,WeatherDisplay:10.37,2013-01-22 21:52:00,
2013-01-22 16:57:00,9.9,1.7,29.12,North,1,15.0,15.0,69,0.00,CLR,SKC,0.00,WeatherDisplay:10.37,2013-01-22 21:57:00,
2013-01-22 17:02:00,9.7,1.9,29.12,NW,315,12.7,12.7,70,0.00,CLR,SKC,0.00,WeatherDisplay:10.37,2013-01-22 22:02:00,
2013-01-22 17:07:00,9.7,1.9,29.12,NW,315,8.1,8.1,70,0.00,CLR,SKC,0.00,WeatherDisplay:10.37,2013-01-22 22:07:00,
2013-01-22 17:12:00,9.7,2.5,29.12,NNE,14,9.2,9.2,72,0.00,CLR,SKC,0.00,WeatherDisplay:10.37,2013-01-22 22:12:00,
2013-01-22 17:17:00,9.7,2.2,29.13,North,0,8.1,8.1,71,0.00,CLR,SKC,0.00,WeatherDisplay:10.37,2013-01-22 22:17:00,
2013-01-22 17:23:00,9.7,1.9,29.13,North,0,11.5,11.5,70,0.00,CLR,SKC,0.00,WeatherDisplay:10.37,2013-01-22 22:23:00,
2013-01-22 17:28:00,9.7,1.2,29.13,North,0,12.7,12.7,68,0.00,CLR,SKC,0.00,WeatherDisplay:10.37,2013-01-22 22:28:00,
2013-01-22 17:33:00,9.7,1.2,29.13,NNE,16,10.4,10.4,68,0.00,CLR,SKC,0.00,WeatherDisplay:10.37,2013-01-22 22:33:00,
2013-01-22 17:38:00,9.5,0.7,29.13,North,0,10.4,10.4,67,0.00,CLR,SKC,0.00,WeatherDisplay:10.37,2013-01-22 22:38:00,
2013-01-22 17:43:00,9.5,0.7,29.13,North,0,10.4,10.4,67,0.00,CLR,SKC,0.00,WeatherDisplay:10.37,2013-01-22 22:43:00,
2013-01-22 17:48:00,9.5,0.4,29.13,West,270,15.0,15.0,66,0.00,CLR,SKC,0.00,WeatherDisplay:10.37,2013-01-22 22:48:00,
2013-01-22 17:53:00,9.5,0.4,29.14,NNE,14,17.3,17.3,66,0.00,CLR,SKC,0.00,WeatherDisplay:10.37,2013-01-22 22:53:00,
2013-01-22 17:58:00,9.3,0.2,29.14,North,1,12.7,12.7,66,0.00,CLR,SKC,0.00,WeatherDisplay:10.37,2013-01-22 22:58:00,
2013-01-22 18:03:00,9.3,-0.1,29.14,South,180,9.2,9.2,65,0.00,CLR,SKC,0.00,WeatherDisplay:10.37,2013-01-22 23:03:00,
2013-01-22 18:08:00,9.3,-0.1,29.14,SE,135,9.2,9.2,65,0.00,CLR,SKC,0.00,WeatherDisplay:10.37,2013-01-22 23:08:00,
2013-01-22 18:13:00,9.1,0.1,29.14,North,0,12.7,12.7,66,0.00,CLR,SKC,0.00,WeatherDisplay:10.37,2013-01-22 23:13:00,
2013-01-22 18:18:00,9.1,0.1,29.14,North,0,11.5,11.5,66,0.00,CLR,SKC,0.00,WeatherDisplay:10.37,2013-01-22 23:18:00,
2013-01-22 18:23:00,9.0,0.2,29.14,South,180,9.2,9.2,67,0.00,CLR,SKC,0.00,WeatherDisplay:10.37,2013-01-22 23:23:00,
2013-01-22 18:28:00,9.0,0.2,29.14,NNE,12,8.1,8.1,67,0.00,CLR,SKC,0.00,WeatherDisplay:10.37,2013-01-22 23:28:00,
2013-01-22 18:33:00,9.0,0.2,29.14,North,0,5.8,5.8,67,0.00,CLR,SKC,0.00,WeatherDisplay:10.37,2013-01-22 23:33:00,
2013-01-22 18:38:00,8.8,0.4,29.14,North,0,5.8,5.8,68,0.00,CLR,SKC,0.00,WeatherDisplay:10.37,2013-01-22 23:38:00,
2013-01-22 18:43:00,8.6,0.5,29.14,SE,135,9.2,9.2,69,0.00,CLR,SKC,0.00,WeatherDisplay:10.37,2013-01-22 23:43:00,
2013-01-22 18:48:00,8.6,0.8,29.14,NE,45,10.4,10.4,70,0.00,CLR,SKC,0.00,WeatherDisplay:10.37,2013-01-22 23:48:00,
2013-01-22 18:53:00,8.4,0.9,29.14,North,0,8.1,8.1,71,0.00,CLR,SKC,0.00,WeatherDisplay:10.37,2013-01-22 23:53:00,
2013-01-22 18:58:00,8.4,0.9,29.14,West,270,8.1,8.1,71,0.00,CLR,SKC,0.00,WeatherDisplay:10.37,2013-01-22 23:58:00,
2013-01-22 19:03:00,8.2,0.8,29.15,West,270,8.1,8.1,71,0.00,CLR,SKC,0.00,WeatherDisplay:10.37,2013-01-23 00:03:00,
2013-01-22 19:08:00,8.2,0.8,29.15,NNE,12,8.1,8.1,71,0.00,CLR,SKC,0.00,WeatherDisplay:10.37,2013-01-23 00:08:00,
2013-01-22 19:13:00,8.2,1.1,29.15,West,270,9.2,9.2,72,0.00,CLR,SKC,0.00,WeatherDisplay:10.37,2013-01-23 00:13:00,
2013-01-22 19:18:00,8.2,1.1,29.15,North,1,5.8,5.8,72,0.00,CLR,SKC,0.00,WeatherDisplay:10.37,2013-01-23 00:18:00,
2013-01-22 19:23:00,8.2,1.1,29.15,North,0,8.1,8.1,72,0.00,CLR,SKC,0.00,WeatherDisplay:10.37,2013-01-23 00:23:00,
2013-01-22 19:28:00,8.2,1.1,29.16,South,180,5.8,5.8,72,0.00,CLR,SKC,0.00,WeatherDisplay:10.37,2013-01-23 00:28:00,
2013-01-22 19:33:00,8.2,0.8,29.15,North,0,10.4,10.4,71,0.00,CLR,SKC,0.00,WeatherDisplay:10.37,2013-01-23 00:33:00,
2013-01-22 19:38:00,8.2,1.1,29.15,NW,315,6.9,6.9,72,0.00,CLR,SKC,0.00,WeatherDisplay:10.37,2013-01-23 00:38:00,
2013-01-22 19:43:00,8.1,0.9,29.16,North,1,4.6,4.6,72,0.00,CLR,SKC,0.00,WeatherDisplay:10.37,2013-01-23 00:43:00,
2013-01-22 19:48:00,8.2,1.1,29.16,North,0,10.4,10.4,72,0.00,CLR,SKC,0.00,WeatherDisplay:10.37,2013-01-23 00:48:00,
2013-01-22 19:53:00,8.1,1.2,29.16,North,0,8.1,8.1,73,0.00,CLR,SKC,0.00,WeatherDisplay:10.37,2013-01-23 00:53:00,
2013-01-22 19:58:00,8.1,0.9,29.16,North,0,11.5,11.5,72,0.00,CLR,SKC,0.00,WeatherDisplay:10.37,2013-01-23 00:58:00,
2013-01-22 20:03:00,8.2,1.4,29.16,North,0,6.9,6.9,73,0.00,CLR,SKC,0.00,WeatherDisplay:10.37,2013-01-23 01:03:00,
2013-01-22 20:08:00,8.1,1.2,29.16,North,0,6.9,6.9,73,0.00,CLR,SKC,0.00,WeatherDisplay:10.37,2013-01-23 01:08:00,
2013-01-22 20:13:00,7.9,1.0,29.16,North,0,8.1,8.1,73,0.00,CLR,SKC,0.00,WeatherDisplay:10.37,2013-01-23 01:13:00,
2013-01-22 20:18:00,7.9,1.3,29.16,North,0,8.1,8.1,74,0.00,CLR,SKC,0.00,WeatherDisplay:10.37,2013-01-23 01:18:00,
2013-01-22 20:23:00,7.9,1.3,29.16,North,0,4.6,4.6,74,0.00,CLR,SKC,0.00,WeatherDisplay:10.37,2013-01-23 01:23:00,
2013-01-22 20:28:00,7.7,1.4,29.16,North,0,3.5,3.5,75,0.00,CLR,SKC,0.00,WeatherDisplay:10.37,2013-01-23 01:28:00,
2013-01-22 20:33:00,7.5,1.2,29.16,North,0,3.5,3.5,75,0.00,CLR,SKC,0.00,WeatherDisplay:10.37,2013-01-23 01:33:00,
2013-01-22 20:38:00,7.5,1.2,29.16,SE,135,5.8,5.8,75,0.00,CLR,SKC,0.00,WeatherDisplay:10.37,2013-01-23 01:38:00,
2013-01-22 20:43:00,7.5,1.2,29.16,North,0,5.8,5.8,75,0.00,CLR,SKC,0.00,WeatherDisplay:10.37,2013-01-23 01:43:00,
2013-01-22 20:48:00,7.7,1.1,29.16,NNE,15,10.4,10.4,74,0.00,CLR,SKC,0.00,WeatherDisplay:10.37,2013-01-23 01:48:00,
2013-01-22 20:53:00,7.7,1.1,29.15,North,0,8.1,8.1,74,0.00,CLR,SKC,0.00,WeatherDisplay:10.37,2013-01-23 01:53:00,
2013-01-22 20:58:00,7.7,0.8,29.15,North,0,8.1,8.1,73,0.00,CLR,SKC,0.00,WeatherDisplay:10.37,2013-01-23 01:58:00,
2013-01-22 21:03:00,7.7,1.1,29.16,North,0,3.5,3.5,74,0.00,CLR,SKC,0.00,WeatherDisplay:10.37,2013-01-23 02:03:00,
2013-01-22 21:08:00,7.7,0.8,29.16,North,0,5.8,5.8,73,0.00,CLR,SKC,0.00,WeatherDisplay:10.37,2013-01-23 02:08:00,
2013-01-22 21:13:00,7.5,0.7,29.15,SE,135,5.8,5.8,73,0.00,CLR,SKC,0.00,WeatherDisplay:10.37,2013-01-23 02:13:00,
2013-01-22 21:19:00,7.5,1.0,29.16,North,0,8.1,8.1,74,0.00,CLR,SKC,0.00,WeatherDisplay:10.37,2013-01-23 02:19:00,
2013-01-22 21:24:00,7.3,0.8,29.16,North,0,5.8,5.8,74,0.00,CLR,SKC,0.00,WeatherDisplay:10.37,2013-01-23 02:24:00,
2013-01-22 21:29:00,7.3,1.1,29.16,South,180,6.0,6.0,75,0.00,CLR,SKC,0.00,WeatherDisplay:10.37,2013-01-23 02:29:00,
2013-01-22 21:34:00,7.3,1.1,29.16,North,0,5.8,5.8,75,0.00,CLR,SKC,0.00,WeatherDisplay:10.37,2013-01-23 02:34:00,
2013-01-22 21:39:00,7.2,0.9,29.16,North,0,6.9,6.9,75,0.00,CLR,SKC,0.00,WeatherDisplay:10.37,2013-01-23 02:39:00,
2013-01-22 21:44:00,7.2,0.9,29.16,NNE,16,8.1,8.1,75,0.00,CLR,SKC,0.00,WeatherDisplay:10.37,2013-01-23 02:44:00,
2013-01-22 21:49:00,7.3,1.1,29.16,North,0,5.8,5.8,75,0.00,CLR,SKC,0.00,WeatherDisplay:10.37,2013-01-23 02:49:00,
2013-01-22 21:54:00,7.2,0.9,29.16,North,0,3.5,3.5,75,0.00,CLR,SKC,0.00,WeatherDisplay:10.37,2013-01-23 02:54:00,
2013-01-22 21:59:00,7.2,1.2,29.16,North,0,4.6,4.6,76,0.00,CLR,SKC,0.00,WeatherDisplay:10.37,2013-01-23 02:59:00,
2013-01-22 22:04:00,7.0,1.0,29.16,North,0,6.9,6.9,76,0.00,CLR,SKC,0.00,WeatherDisplay:10.37,2013-01-23 03:04:00,
2013-01-22 22:09:00,7.0,1.0,29.16,North,0,6.9,6.9,76,0.00,CLR,SKC,0.00,WeatherDisplay:10.37,2013-01-23 03:09:00,
2013-01-22 22:14:00,7.0,1.0,29.16,South,180,5.8,5.8,76,0.00,CLR,SKC,0.00,WeatherDisplay:10.37,2013-01-23 03:14:00,
2013-01-22 22:19:00,7.0,1.0,29.16,North,0,5.4,5.4,76,0.00,CLR,SKC,0.00,WeatherDisplay:10.37,2013-01-23 03:19:00,
2013-01-22 22:24:00,7.0,1.0,29.16,North,0,4.6,4.6,76,0.00,CLR,SKC,0.00,WeatherDisplay:10.37,2013-01-23 03:24:00,
2013-01-22 22:29:00,7.0,1.3,29.16,South,180,5.8,5.8,77,0.00,CLR,SKC,0.00,WeatherDisplay:10.37,2013-01-23 03:29:00,
2013-01-22 22:34:00,7.0,1.3,29.16,North,0,3.5,3.5,77,0.00,CLR,SKC,0.00,WeatherDisplay:10.37,2013-01-23 03:34:00,
2013-01-22 22:39:00,7.2,1.5,29.16,North,8,3.5,3.5,77,0.00,CLR,SKC,0.00,WeatherDisplay:10.37,2013-01-23 03:39:00,
2013-01-22 22:44:00,7.2,1.2,29.16,North,0,2.3,2.3,76,0.00,CLR,SKC,0.00,WeatherDisplay:10.37,2013-01-23 03:44:00,
2013-01-22 22:49:00,7.3,1.6,29.17,North,0,5.8,5.8,77,0.00,CLR,SKC,0.00,WeatherDisplay:10.37,2013-01-23 03:49:00,
2013-01-22 22:54:00,7.3,1.6,29.16,NW,315,5.8,5.8,77,0.00,CLR,SKC,0.00,WeatherDisplay:10.37,2013-01-23 03:54:00,
2013-01-22 22:59:00,7.5,1.8,29.16,West,270,8.1,8.1,77,0.00,CLR,SKC,0.00,WeatherDisplay:10.37,2013-01-23 03:59:00,
2013-01-22 23:04:00,7.5,1.8,29.16,West,270,3.5,3.5,77,0.00,CLR,SKC,0.00,WeatherDisplay:10.37,2013-01-23 04:04:00,
2013-01-22 23:09:00,7.7,2.0,29.16,NNE,12,8.3,8.3,77,0.00,CLR,SKC,0.00,WeatherDisplay:10.37,2013-01-23 04:09:00,
2013-01-22 23:14:00,7.7,2.3,29.16,North,0,6.9,6.9,78,0.00,CLR,SKC,0.00,WeatherDisplay:10.37,2013-01-23 04:14:00,
2013-01-22 23:19:00,7.7,2.3,29.16,North,6,5.8,5.8,78,0.00,CLR,SKC,0.00,WeatherDisplay:10.37,2013-01-23 04:19:00,
2013-01-22 23:24:00,7.7,2.5,29.16,SSE,158,5.8,5.8,79,0.00,CLR,SKC,0.00,WeatherDisplay:10.37,2013-01-23 04:24:00,
2013-01-22 23:29:00,7.7,2.8,29.16,North,0,9.2,9.2,80,0.00,CLR,SKC,0.00,WeatherDisplay:10.37,2013-01-23 04:29:00,
2013-01-22 23:34:00,7.7,2.8,29.16,North,0,10.4,10.4,80,0.00,CLR,SKC,0.00,WeatherDisplay:10.37,2013-01-23 04:34:00,
2013-01-22 23:39:00,7.5,2.9,29.16,North,0,10.4,10.4,81,0.00,CLR,SKC,0.00,WeatherDisplay:10.37,2013-01-23 04:39:00,
2013-01-22 23:44:00,7.5,2.9,29.16,North,6,5.8,5.8,81,0.00,CLR,SKC,0.00,WeatherDisplay:10.37,2013-01-23 04:44:00,
2013-01-22 23:49:00,7.5,3.2,29.15,North,0,10.4,10.4,82,0.00,CLR,SKC,0.00,WeatherDisplay:10.37,2013-01-23 04:49:00,
2013-01-22 23:54:00,7.3,3.0,29.16,NNE,14,6.9,6.9,82,0.00,CLR,SKC,0.00,WeatherDisplay:10.37,2013-01-23 04:54:00,
2013-01-22 23:59:00,7.3,3.3,29.16,North,0,7.6,7.6,83,0.00,CLR,SKC,0.00,WeatherDisplay:10.37,2013-01-23 04:59:00,